SCP
0 0 -0 0 0 0 0 0 0 0 0 0 0 0 0 0 0 0 0 0 0 0 0 0 0 0 0
-0 0 0 0 0 0 0 0 0 0 0 0 0 0 0 0 0 0 0 0 0 0 0 0 0 0 0
0 0 0 0 0 0 0 0 0 0 0 0 0 0 0 0 0 0 0 0 0 0 0 0 0 0 0
0 0 0 0 0 0 0 0 0 0 0 0 0 0 0 0 0 0 0 0 0 0 0 0 0 0 0
0 0 0 0 0 0 0 0 0 0 0 0 0 0 0 0 0 0 0 0 0 0 0 0 0 0 0
0 0 0 0 0 0 0 0 0 0 0 0 0 0 0 0 0 0 0 0 0 0 0 0 0 0 0
0 0 0 0 0 0 0 0 0 0 0 0 0 0 0 0 0 0 0 0 0 0 0 0 0 0 0
0 0 0 0 0 0 0 0 0 0 0 0 0 0 0 0 0 0 0 0 0 0 0 0 0 0 0
0 0 0 0 0 0 0 0 0 0 0 0 0 0 0 0 0 0 0 0 0 0 0 0 0 0 0
0 0 0 0 0 0 0 0 0 0 0 0 0 0 0 0 0 0 0 0 0 0 0 0 0 0 0
0 0 0 0 0 0 0 0 0 0 0 0 0 0 0 0 0 0 0 0 0 0 0 0 0 0 0
0 0 0 0 0 0 0 0 0 0 0 0 0 0 0 0 0 0 0 0 0 0 0 0 0 0 0
0 0 0 0 0 0 0 0 0 0 0 0 0 0 0 0 0 0 0 0 0 0 0 0 0 0 0
0 0 0 0 0 0 0 0 0 0 0 0 0 0 0 0 0 0 0 0 0 0 0 0 0 0 0
0 0 0 0 0 0 0 0 0 0 0 0 0 0 0 0 0 0 0 0 0 0 0 0 0 0 0
0 0 0 0 0 0 0 0 0 0 0 0 0 0 0 0 0 0 0 0 0 0 0 0 0 0 0
Wind_Speed_500mb
48 49 49 48 48 49 46 43 37 33 26 23 23 23 22 22 19 16 13 9 8 7 6 5 6 7 9
51 54 53 51 52 52 51 48 45 41 31 27 26 25 24 23 20 18 15 13 10 8 8 7 8 8 9
54 57 58 58 56 57 56 56 50 42 38 35 33 32 30 28 25 23 21 17 14 12 10 10 12 12 12
52 53 60 66 65 64 63 63 56 48 45 42 40 37 35 31 29 27 24 21 18 14 12 13 13 13 14
57 58 61 64 69 69 66 67 60 54 51 47 46 44 42 38 36 33 29 26 21 18 15 13 12 13 14
61 63 63 63 68 68 70 66 61 59 59 53 52 49 48 45 42 39 35 29 25 21 17 15 13 13 14
67 69 68 69 70 71 68 70 72 67 62 58 57 55 53 49 48 43 39 34 30 26 21 18 15 13 13
67 71 74 74 74 73 75 76 75 72 68 67 64 62 58 54 52 49 44 40 36 31 26 21 17 15 14
65 71 76 80 79 82 80 80 79 76 75 72 70 68 63 60 57 54 50 46 41 36 31 25 21 17 16
71 74 78 81 84 85 85 85 86 80 81 79 76 75 70 67 63 60 55 51 47 41 35 30 26 22 19
69 74 76 77 82 83 83 86 88 86 84 85 83 78 76 73 70 67 63 57 52 46 41 36 31 26 22
51 61 70 72 79 81 81 83 81 85 85 86 85 83 81 77 75 73 69 64 60 53 48 42 35 29 24
37 49 56 68 71 73 76 80 81 81 84 85 90 89 88 82 78 76 74 69 63 60 50 40 35 33 31
25 28 30 31 45 49 58 71 77 81 87 87 91 93 92 86 83 82 79 76 70 69 60 42 25 33 36
12 20 29 31 41 37 43 50 64 68 76 83 86 94 95 93 91 88 87 86 83 77 68 35 18 20 31
9 8 13 19 25 25 33 41 51 58 66 78 83 88 97 97 96 94 91 91 88 87 78 75 52 27 22
Wind_Direction_500mb
225 226 227 225 222 221 227 233 237 254 250 243 236 234 236 240 242 244 239 223 219 229 240 246 254 250 252
226 225 226 225 224 224 228 234 238 247 244 236 235 234 234 232 227 219 216 223 232 248 265 282 280 276 273
229 228 228 227 226 225 228 236 240 237 235 232 229 227 226 223 218 212 210 212 223 231 240 256 266 271 273
230 229 230 229 229 229 231 236 238 233 232 226 225 224 223 219 216 215 213 214 222 227 234 242 251 258 265
232 231 234 231 231 229 230 233 235 231 229 225 223 218 219 214 213 213 212 217 221 226 231 242 254 262 267
238 236 235 235 233 232 231 231 231 225 227 225 225 221 221 216 215 214 215 219 221 225 231 241 253 266 274
241 240 239 235 234 235 232 229 230 230 230 228 227 225 222 219 218 217 218 220 222 225 230 238 249 261 267
245 244 245 242 238 236 234 235 235 233 233 230 229 227 225 223 221 219 220 221 221 224 228 235 244 255 265
252 248 244 244 242 241 239 238 239 235 234 233 231 228 228 226 223 220 220 221 223 224 227 231 239 249 259
249 247 246 245 244 242 242 241 241 237 235 234 233 231 229 229 227 225 224 222 223 223 227 232 239 247 259
251 244 243 242 243 244 242 243 243 241 236 235 235 233 231 230 228 226 224 223 223 222 226 232 237 244 252
249 245 241 244 242 241 242 243 243 244 238 235 235 235 235 232 228 226 226 224 223 223 225 228 234 242 248
253 245 243 242 243 246 243 241 241 243 243 237 236 235 235 235 233 230 227 223 219 220 218 220 228 235 239
246 253 246 250 246 248 252 246 243 241 244 240 237 237 238 236 233 232 229 225 221 224 218 222 219 232 233
284 249 245 239 252 247 247 248 248 244 244 245 240 239 240 238 237 236 233 230 227 225 217 215 199 218 223
11 323 305 280 272 267 266 255 258 256 247 250 249 242 241 240 239 238 237 236 232 232 222 220 222 201 187
Wind_Speed_850mb
48 49 49 48 48 49 46 43 37 33 26 23 23 23 22 22 19 16 13 9 8 7 6 5 6 7 9
51 54 53 51 52 52 51 48 45 41 31 27 26 25 24 23 20 18 15 13 10 8 8 7 8 8 9
54 57 58 58 56 57 56 56 50 42 38 35 33 32 30 28 25 23 21 17 14 12 10 10 12 12 12
52 53 60 66 65 64 63 63 56 48 45 42 40 37 35 31 29 27 24 21 18 14 12 13 13 13 14
57 58 61 64 69 69 66 67 60 54 51 47 46 44 42 38 36 33 29 26 21 18 15 13 12 13 14
61 63 63 63 68 68 70 66 61 59 59 53 52 49 48 45 42 39 35 29 25 21 17 15 13 13 14
67 69 68 69 70 71 68 70 72 67 62 58 57 55 53 49 48 43 39 34 30 26 21 18 15 13 13
67 71 74 74 74 73 75 76 75 72 68 67 64 62 58 54 52 49 44 40 36 31 26 21 17 15 14
65 71 76 80 79 82 80 80 79 76 75 72 70 68 63 60 57 54 50 46 41 36 31 25 21 17 16
71 74 78 81 84 85 85 85 86 80 81 79 76 75 70 67 63 60 55 51 47 41 35 30 26 22 19
69 74 76 77 82 83 83 86 88 86 84 85 83 78 76 73 70 67 63 57 52 46 41 36 31 26 22
51 61 70 72 79 81 81 83 81 85 85 86 85 83 81 77 75 73 69 64 60 53 48 42 35 29 24
37 49 56 68 71 73 76 80 81 81 84 85 90 89 88 82 78 76 74 69 63 60 50 40 35 33 31
25 28 30 31 45 49 58 71 77 81 87 87 91 93 92 86 83 82 79 76 70 69 60 42 25 33 36
12 20 29 31 41 37 43 50 64 68 76 83 86 94 95 93 91 88 87 86 83 77 68 35 18 20 31
9 8 13 19 25 25 33 41 51 58 66 78 83 88 97 97 96 94 91 91 88 87 78 75 52 27 22
Wind_Direction_850mb
225 226 227 225 222 221 227 233 237 254 250 243 236 234 236 240 242 244 239 223 219 229 240 246 254 250 252
226 225 226 225 224 224 228 234 238 247 244 236 235 234 234 232 227 219 216 223 232 248 265 282 280 276 273
229 228 228 227 226 225 228 236 240 237 235 232 229 227 226 223 218 212 210 212 223 231 240 256 266 271 273
230 229 230 229 229 229 231 236 238 233 232 226 225 224 223 219 216 215 213 214 222 227 234 242 251 258 265
232 231 234 231 231 229 230 233 235 231 229 225 223 218 219 214 213 213 212 217 221 226 231 242 254 262 267
238 236 235 235 233 232 231 231 231 225 227 225 225 221 221 216 215 214 215 219 221 225 231 241 253 266 274
241 240 239 235 234 235 232 229 230 230 230 228 227 225 222 219 218 217 218 220 222 225 230 238 249 261 267
245 244 245 242 238 236 234 235 235 233 233 230 229 227 225 223 221 219 220 221 221 224 228 235 244 255 265
252 248 244 244 242 241 239 238 239 235 234 233 231 228 228 226 223 220 220 221 223 224 227 231 239 249 259
249 247 246 245 244 242 242 241 241 237 235 234 233 231 229 229 227 225 224 222 223 223 227 232 239 247 259
251 244 243 242 243 244 242 243 243 241 236 235 235 233 231 230 228 226 224 223 223 222 226 232 237 244 252
249 245 241 244 242 241 242 243 243 244 238 235 235 235 235 232 228 226 226 224 223 223 225 228 234 242 248
253 245 243 242 243 246 243 241 241 243 243 237 236 235 235 235 233 230 227 223 219 220 218 220 228 235 239
246 253 246 250 246 248 252 246 243 241 244 240 237 237 238 236 233 232 229 225 221 224 218 222 219 232 233
284 249 245 239 252 247 247 248 248 244 244 245 240 239 240 238 237 236 233 230 227 225 217 215 199 218 223
11 323 305 280 272 267 266 255 258 256 247 250 249 242 241 240 239 238 237 236 232 232 222 220 222 201 187